{"data":{"norad_id":64291,"intl_designator":"2025-123A","name":"STARLINK-34448","alt_names":[],"object_type":"PAYLOAD","status":"ACTIVE","operator":null,"country":"US","launch_date":"2025-06-08","launch_site_code":"AFWTR","launch_vehicle":null,"mission":null,"orbit_class":"UNKNOWN","rcs_meters":null,"size_class":null,"mass_kg":null,"dimensions":null,"purposes":["comms"],"wikipedia_slug":null,"has_3d_model":false,"image_url":null,"decayed_at":null,"tle_current":{"epoch":"2026-05-25T00:46:15.980160Z","epoch_age_seconds":66166,"freshness":"FRESH","line1":"1 64291U 25123A   26145.03212940  .00002999  00000+0  25901-3 0  9992","line2":"2 64291  70.0020   1.9874 0002369 274.2029  85.8860 14.98338139 54270","mean_motion":14.98338139,"eccentricity":0.0002369,"inclination_deg":70.002,"raan_deg":1.9874,"arg_perigee_deg":274.2029,"mean_anomaly_deg":85.886,"bstar":0.00025901,"rev_number":5427,"period_min":96.106477070727,"perigee_km":570.38422713893,"apogee_km":573.67721660555,"semimajor_km":6950.1677218722,"source":"CELESTRAK","updated_at":"2026-05-25T13:38:20.364183Z"}}}